Regional Weather Roundup
Issued by NWS Newport/Morehead, NC

Current Version | Previous Version | Graphics & Text | Print | Product List | Glossary Off
Versions: 1 2 3 4 5 6 7 8 9 10 11 12 13 14 15 16 17 18 19 20 21 22 23 24 25 26 27 28 29 30 31 32 33 34 35 36 37 38 39 40 41 42 43 44 45 46 47 48 49 50

000
ASUS42 KMHX 271912
RWRMHX
WEATHER ROUNDUP FOR EASTERN NORTH CAROLINA
NATIONAL WEATHER SERVICE NEWPORT/MOREHEAD CITY NC
200 PM EST FRI FEB 27 2015

NOTE: "FAIR" INDICATES FEW OR NO CLOUDS BELOW 12,000 FEET
WITH NO SIGNIFICANT WEATHER AND/OR OBSTRUCTIONS TO VISIBILITY

NCZ015>017-031-032-045>047-102-103-272000-
NORTH COAST

CITY           SKY/WX    TMP DP  RH WIND       PRES   REMARKS
EDENTON        SUNNY     45  32  60 N5        30.38S
ELIZABETH CITY SUNNY     44  30  57 N6        30.38S
KITTY HAWK     CLEAR     40  29  65 N7        30.37R
MANTEO         SUNNY     43  23  45 N14       30.38R

$$

NCZ045>047-081-094-103-104-272000-
CENTRAL COAST

CITY           SKY/WX    TMP DP  RH WIND       PRES   REMARKS
FRISCO         PTSUNNY   41  31  67 N9        30.36R
SWANQUARTER      N/A     50 N/A N/A NW12      30.33S

$$

NCZ095-097-098-100-101-272000-
SOUTHERN COAST

CITY           SKY/WX    TMP DP  RH WIND       PRES   REMARKS
BEAUFORT       PTSUNNY   47  32  56 N13       30.36S
CEDAR ISLAND     N/A     39 N/A N/A NW5       30.39S
JACKSONVILLE   NOT AVBL
PINEY ISLAND     N/A    N/A N/A N/A MISG      30.36S
WILMINGTON     MOSUNNY   49  31  49 N8        30.36F


$$

NCZ011>013-027>030-043-044-078>080-089-090>093-098-272000-
COASTAL PLAIN

CITY           SKY/WX    TMP DP  RH WIND       PRES   REMARKS
AHOSKIE        SUNNY     43  26  50 NW5       30.39R
CLINTON        PTSUNNY   50  31  49 NE6       30.38S
ELIZABETHTOWN  MOSUNNY   50  29  44 CALM      30.36F
GOLDSBORO      MOSUNNY   48  33  57 N10       30.35F
GREENVILLE     SUNNY     46  28  49 NW6       30.38S
HAVELOCK       PTSUNNY   48  29  47 VRB7      30.37F
KENANSVILLE    MOSUNNY   48  29  47 N5        30.38S
KINSTON        MOSUNNY   46  30  53 N8        30.38S
NEW BERN       MOSUNNY   49  30  48 NW9       30.37F
RICHLANDS      MOSUNNY   48  30  49 NE8       30.37S
ROCKY MOUNT    SUNNY     47  27  45 NW12      30.38S
WASHINGTON     MOSUNNY   45  30  55 NE7       30.38S
WHITEVILLE     MOSUNNY   49  29  46 CALM      30.36F

$$

AMZ130-135-150-152-154-156-158-170-250-252-270-ANZ085-086-088-633-658-670-272000-
MARINE OBSERVATIONS

STATION/POSITION TIME  TEMP    WIND        PRES    WAVE   SWELL
                       AIR SEA DIR/SP/G            HT/PER HT/PER
                 (UTC) (F)     (DEG/KT/KT) (MB)    (FT/S) (FT/S)
CHESAPEAKE LIGHT 1800   33     360/  9/ 10 1029.8
64 E VA BEACH    1850   41 60  350/ 17/ 21 1027.3    7/ 9   5/ 9
DUCK             1800   35 34  360/  9/ 11 1027.7
2 E DUCK         1811      35                N/A     5/11   3/11
10 NE DUCK       1822      36                N/A     6/11   3/11
OREGON INLET     1800   38 37  350/ 13/ 17 1028.0
HATTERAS CG      1800   39 40   10/ 16/ 18 1027.9
CAPE LOOKOUT     1900   44      20/ 12/ 14 1028.0
BEAUFORT LAB     1800   44 40  360/  7/ 12 1027.2
27 SE WRIGHTSVLE NOT AVBL
5 SE WRIGHTSVLE  NOT AVBL
225 S CAPE HAT   1850   63 70  340/ 16/ 19 1022.8    8/11   7/11
41 SE CHARLESTON 1850   49 66   20/ 17/ 21 1026.9    5/ 8   3/ 8

$$


USA.gov is the U.S. government's official web portal to all federal, state and local government web resources and services.